www.pogodaiklimat.ru
ПОГОДА в Элле

Архив погоды в Элле (Нидерланды)

Время
(UTC), дата
19 28.11
20 28.11
21 28.11
22 28.11
23 28.11
00 29.11
01 29.11
02 29.11
03 29.11
04 29.11
05 29.11
06 29.11
07 29.11
08 29.11
09 29.11
10 29.11
11 29.11
12 29.11
13 29.11
14 29.11
15 29.11
16 29.11
17 29.11
18 29.11
19 29.11
20 29.11
21 29.11
22 29.11
23 29.11
00 30.11
01 30.11
02 30.11
03 30.11
04 30.11
05 30.11
06 30.11
07 30.11
08 30.11
09 30.11
10 30.11
11 30.11
12 30.11
13 30.11
14 30.11
15 30.11
16 30.11
17 30.11
18 30.11
19 30.11
20 30.11
21 30.11
22 30.11
23 30.11
00 1.12
01 1.12
02 1.12
03 1.12
04 1.12
05 1.12
06 1.12
07 1.12
08 1.12
09 1.12
10 1.12
11 1.12
12 1.12
13 1.12
14 1.12
15 1.12
16 1.12
17 1.12
18 1.12
19 1.12
20 1.12
21 1.12
22 1.12
23 1.12
00 2.12
01 2.12
02 2.12
03 2.12
04 2.12
05 2.12
06 2.12
07 2.12
08 2.12
09 2.12
10 2.12
11 2.12
12 2.12
13 2.12
14 2.12
15 2.12
16 2.12
17 2.12
18 2.12
19 2.12
20 2.12
21 2.12
22 2.12
23 2.12
00 3.12
01 3.12
02 3.12
03 3.12
04 3.12
05 3.12
06 3.12
07 3.12
08 3.12
09 3.12
10 3.12
11 3.12
12 3.12
13 3.12
14 3.12
15 3.12
16 3.12
17 3.12
18 3.12
19 3.12
20 3.12
21 3.12
22 3.12
23 3.12
00 4.12
01 4.12
02 4.12
03 4.12
04 4.12
05 4.12
06 4.12
09 4.12
10 4.12
12 4.12
13 4.12
14 4.12
15 4.12
16 4.12
17 4.12
18 4.12
19 4.12
20 4.12
21 4.12
22 4.12
23 4.12
00 5.12
01 5.12
02 5.12
03 5.12
04 5.12
05 5.12
06 5.12
07 5.12
08 5.12
09 5.12
10 5.12
11 5.12
12 5.12
13 5.12
14 5.12
15 5.12
16 5.12
17 5.12
18 5.12
Ветер
(напр.,м/с)
Видим. Явления Облачность Т
(С)
Тd
(С)
f
(%)
Тe
(С)
Тes
(С)
Комфортность P
(гПа)
Po
(гПа)
Тmin
(С)
Tmax
(С)
R
(мм)
R24
(мм)
S
(см)
штиль 0-1
{3}
3100 м дымка 10/10 +6.3 +6.1 99
ЮЗ 2-2
{2}
1400 м в посл. час туман 10/10 +4.9 +4.8 99
Ю 1-1
{3}
100 м туман 10 баллов +5.2 +4.9 98
СЗ 1-1
{2}
800 м туман 10/10 +4.7 +4.5 99
Ю 1-1
{2}
700 м туман 10/10 600 м +5.5 +5.5 100
штиль 0-1
{3}
2300 м в посл. час туман 10 баллов +5.4 +5.4 100
З 1-1
{1}
300 м туман 10/10 +5.4 +5.3 99
В 1-1
{2}
1200 м в посл. час туман 10/10 +5.6 +5.5 99
З 1-1
{3}
1800 м в посл. час туман 10 баллов +5.5 +5.4 99
З 2-3
{3}
2200 м в посл. час туман 10/10 200 м +6.0 +5.8 99
З 1-1
{3}
1300 м дымка 10/9 300 м +5.9 +5.6 98
Ю 1-2
{3}
2900 м дымка 10 баллов +6.6 +6.3 98 +4.5 2.7
З 1-2
{3}
600 м туман 10/10 50 м +6.6 +6.5 99
З 2-2
{3}
1300 м в посл. час туман 10/10 100 м +6.7 +6.6 99
З 2-3
{3}
900 м туман 10 баллов +7.1 +7.0 99
З 2-2
{3}
2600 м в посл. час туман 10/10 100 м +7.7 +7.6 99
СЗ 2-4
{4}
2100 м дымка 10/10 100 м +7.7 +7.5 99
З 2-3
{4}
2100 м дымка 10 баллов +7.7 +7.6 99
З 3-4
{4}
7000 м дымка 9/9 600 м +8.0 +7.5 97
СЗ 3-4
{4}
6000 м дымка 10/10 100 м +7.8 +7.2 96
СЗ 2-4
{4}
3100 м дымка 10 баллов +7.7 +7.3 97
С 1-1
{4}
3800 м дымка 10/10 100 м +7.5 +7.5 100
С 1-2
{3}
9000 м дымка 10/9 200 м +7.4 +6.6 95
С 1-1
{4}
700 м туман 1 балл +5.1 +4.5 96 +8.2
З 2-3
{3}
1400 м в посл. час туман 9/9 +4.8 +4.8 100
З 2-3
{3}
4300 м дымка 10/10 100 м +6.2 +5.8 97
З 1-1
{4}
1600 м дымка 9 баллов +5.6 +5.3 98
З 2-2
{2}
2600 м в посл. час туман 10/10 100 м +5.9 +5.6 98
З 2-3
{3}
2800 м дымка 10/10 100 м +6.2 +5.9 98
З 3-3
{4}
1700 м дымка 10 баллов +6.3 +6.0 98
З 2-3
{4}
1600 м в посл. час дождь 10/10 100 м +6.5 +6.4 99 0.1
З 2-3
{3}
1300 м слаб. ливневой дождь 10/10 100 м +6.6 +6.5 99 0.8
СЗ 1-2
{4}
2700 м в посл. час дождь 10 баллов +6.8 +6.7 99 0.4
СЗ 1-3
{3}
3600 м в посл. час дождь 10/9 200 м +6.9 +6.7 99 0.3
СЗ 1-2
{3}
4100 м дымка 10/10 1500 м +6.1 +5.8 98
СЗ 1-1
{4}
100 м туман 6 баллов +4.2 +4.2 100 +3.3 2 1.6
СЗ 1-2
{2}
600 м туман 10/10 1500 м +5.0 +4.9 99
СЗ 1-2
{2}
1100 м в посл. час туман 10/10 1500 м +5.5 +5.5 100
СЗ 1-2
{2}
800 м туман 3 балла +5.5 +5.5 100
СЗ 2-3
{3}
7000 м в посл. час туман 5/5 1500 м +7.3 +6.6 95
С 2-3
{3}
14 км 10/6 600 м +8.0 +5.5 84
С 1-3
{4}
13 км 10 баллов +7.9 +5.9 87 0.0
3-5
{5}
10 км 10/10 600 м +7.7 +5.7 87
С 3-4
{5}
15 км 5/5 600 м +7.8 +5.2 84
С 1-3
{5}
14 км 9/9 600 м +6.9 +4.9 87
СЗ 1-2
{2}
13 км 10/10 600 м +6.7 +5.0 89
2-3
{3}
16 км 8/8 1000 м +5.9 +3.9 87
С 3-4
{5}
19 км 10 баллов +6.5 +4.3 86 +8.2 0.0
С 3-5
{5}
10 км 10/8 300 м +6.4 +5.2 92
СВ 2-3
{4}
9000 м дымка 10/10 200 м +6.3 +5.1 92
С 2-3
{5}
8000 м дымка 10 баллов +6.2 +5.0 92
С 2-3
{3}
8000 м дымка 10/10 300 м +6.1 +4.9 92
С 3-4
{4}
8000 м дымка 10/10 200 м +6.0 +4.8 92
С 3-5
{5}
6000 м дымка 10 баллов +5.8 +4.9 94
С 3-5
{5}
5000 м дымка 10/10 100 м +5.5 +4.6 94
С 4-6
{6}
6000 м в посл. час морось 10/10 100 м +5.5 +4.7 95
С 3-5
{6}
6000 м дымка 10 баллов +5.4 +4.6 95
СВ 3-5
{6}
4300 м дымка 10/10 100 м +5.4 +4.7 95
С 2-4
{5}
3200 м дымка 10/10 100 м +5.4 +4.9 97
СВ 3-5
{6}
3300 м дымка 10 баллов +5.5 +5.0 97 +5.4
СВ 3-5
{6}
10 км 10/10 300 м +5.5 +4.0 90
СВ 3-4
{4}
10 км 10 баллов +5.5 +3.9 89
С 3-4
{6}
9000 м дымка 10 баллов +5.7 +4.1 89
СВ 3-6
{6}
8000 м дымка 10/10 300 м +5.9 +4.2 89
СВ 4-6
{6}
8000 м дымка 10/10 300 м +5.7 +3.9 88
С 3-5
{6}
8000 м дымка 10 баллов +6.1 +4.3 88
СВ 4-5
{5}
9000 м дымка 10/10 300 м +6.1 +4.0 86
СВ 3-4
{5}
9000 м дымка 10/10 300 м +6.1 +4.0 86
СВ 3-5
{5}
9000 м дымка 10 баллов +6.0 +4.0 87
СВ 3-4
{5}
10 км 10/10 300 м +5.8 +4.0 88
СВ 4-5
{6}
11 км 10/10 300 м +5.6 +3.9 89
СВ 3-5
{6}
9000 м дымка 10 баллов +5.5 +3.7 88 +6.4
СВ 3-4
{6}
9000 м дымка 10/10 300 м +5.4 +3.7 89
СВ 2-4
{4}
7000 м дымка 10/10 1000 м +5.1 +3.5 89
С 2-3
{6}
6000 м дымка 10 баллов +5.0 +3.6 91
СВ 3-3
{4}
5000 м дымка 10/6 300 м +4.8 +3.3 90
СВ 3-4
{4}
5000 м дымка 10/10 300 м +4.8 +3.1 89
СВ 3-4
{6}
5000 м дымка 10 баллов +4.5 +2.4 86
СВ 5-7
{7}
7000 м дымка 10/10 300 м +3.8 +1.2 83
СВ 3-4
{6}
7000 м дымка 10/10 300 м +3.6 +1.2 84
СВ 3-5
{7}
8000 м дымка 10 баллов +3.3 +0.7 83
СВ 3-5
{6}
8000 м дымка 10/10 300 м +3.1 +0.7 84
СВ 2-3
{4}
7000 м дымка 10/10 300 м +3.0 +1.0 87
С 3-5
{7}
7000 м дымка 10 баллов +2.9 +0.8 86 +2.9
С 3-5
{5}
8000 м дымка 10/10 300 м +2.9 +0.6 85
СВ 3-5
{5}
7000 м дымка 10/10 300 м +2.9 +0.9 87
С 2-4
{6}
3700 м дымка 10 баллов +2.7 +1.7 93
СВ 4-7
{7}
4800 м в посл. час морось 10/10 200 м +2.8 +1.9 94
СВ 5-7
{8}
6000 м дымка 10/10 200 м +3.1 +1.8 91
СВ 4-6
{8}
7000 м дымка 10 баллов +3.4 +1.5 87
СВ 4-7
{9}
8000 м дымка 10/10 300 м +3.2 +1.0 85
СВ 6-9
{10}
11 км 10/10 300 м +3.1 +0.5 83
СВ 6-9
{10}
9000 м дымка 10 баллов +2.9 +0.1 82
СВ 5-7
{9}
8000 м дымка 10/10 300 м +2.9 -0.1 81
СВ 6-9
{10}
8000 м дымка 10/10 300 м +2.7 -0.3 81
СВ 6-8
{10}
9000 м дымка 10 баллов +2.6 -0.4 81 +3.5
СВ 4-7
{8}
10 км 10/10 600 м +2.5 -0.5 81
СВ 5-8
{8}
11 км 10/10 300 м +2.3 -0.8 80
СВ 5-8
{10}
13 км 10 баллов +2.0 -0.8 82
СВ 4-7
{9}
11 км 10/10 300 м +1.7 -0.4 86
СВ 5-8
{8}
13 км 10/10 1000 м +1.7 -0.6 85
СВ 4-6
{10}
14 км 10 баллов +1.8 -0.5 85
СВ 4-6
{7}
13 км 10/10 300 м +1.7 -0.5 85
СВ 3-5
{6}
13 км 10/10 300 м +1.7 -0.5 85
СВ 3-6
{7}
15 км 10 баллов +1.8 -0.7 83
СВ 4-5
{5}
13 км 10/9 600 м +1.9 -0.5 84
СВ 3-5
{6}
13 км 10/10 2000 м +1.7 -0.6 85
СВ 3-5
{7}
11 км 10 баллов +1.7 -0.5 85 +1.5
СВ 3-5
{6}
10 км 10/10 600 м +1.6 -0.3 87
СВ 3-5
{5}
11 км 10/10 600 м +1.8 -0.6 84
СВ 5-7
{8}
12 км 10 баллов +2.1 -1.0 80
СВ 4-6
{8}
12 км 10/10 600 м +2.2 -0.7 81
СВ 4-6
{6}
13 км 10/9 600 м +2.3 -0.9 79
СВ 4-6
{8}
14 км 10 баллов +2.5 -0.9 78
СВ 4-6
{7}
14 км 10/10 +2.7 -0.7 78
СВ 4-6
{6}
13 км 10/10 +2.5 -0.8 79
СВ 4-5
{7}
9000 м дымка 10 баллов +2.1 -0.6 82
СВ 4-5
{6}
9000 м дымка 10/10 600 м +1.7 -0.8 83
СВ 4-5
{6}
9000 м дымка 10/10 600 м +1.6 -0.9 83
СВ 4-5
{7}
9000 м дымка 10 баллов +1.5 -1.1 83 +3.1
СВ 3-5
{5}
8000 м дымка 10/10 600 м +1.3 -0.9 85
СВ 3-5
{5}
9000 м дымка 10/10 600 м +1.3 -1.0 85
СВ 4-5
{6}
9000 м дымка 10 баллов +1.2 -1.1 85
СВ 3-4
{5}
10 км 10/8 600 м +1.2 -0.9 86
СВ 3-5
{5}
10 км 10/10 1000 м +1.2 -1.0 85
СВ 3-5
{6}
9000 м дымка 10 баллов +1.2 -1.0 85
СВ 3-4
{6}
9000 м дымка 10/10 600 м +1.1 -1.0 86
СВ 3-5
{5}
8000 м дымка 10 баллов +1.1 -1.1 85
СВ 4-5
{6}
7000 м дымка 10 баллов +0.9 -1.1 86
СВ 3-5
{6}
7000 м дымка 10/10 600 м +0.9 -1.1 86
СВ 3-4
{6}
7000 м дымка 10/10 600 м +0.9 -1.1 86
СВ 4-6
{6}
7000 м дымка 10 баллов +0.9 -1.1 86 +0.8
В 4-5
{7}
16 км 10 баллов +1.2 -1.3 83
В 4-6
{6}
15 км 10/10 300 м +1.3 -1.5 82
СВ 4-6
{7}
20 км 10 баллов +1.1 -1.8 81
В 5-7
{7}
20 км 10/10 300 м +1.1 -2.0 80
В 4-6
{6}
14 км 10/10 300 м +1.3 -1.6 81
В 4-5
{7}
13 км 10 баллов +1.4 -1.1 83
В 2-4
{5}
12 км 10/10 300 м +1.5 -0.8 85
СВ 1-2
{3}
12 км 10/10 300 м +1.6 -0.5 86
В 1-2
{7}
11 км 10 баллов +1.7 -0.4 86 +1.7
СВ 3-5
{5}
10 км 10/10 300 м +2.2 +0.2 87
СВ 3-4
{5}
10 км 10/10 300 м +2.4 +0.3 86
СВ 3-5
{5}
9000 м дымка 10 баллов +2.3 +0.3 87
СВ 3-4
{5}
7000 м дымка 10/10 200 м +2.3 +0.7 89
СВ 3-5
{5}
7000 м дымка 10/10 200 м +2.2 +0.8 90
СВ 3-4
{5}
6000 м в посл. час морось 10 баллов +2.2 +1.0 92
СВ 2-3
{4}
8000 м дымка 10/10 200 м +2.3 +1.0 91
С 1-3
{4}
7000 м дымка 10/10 200 м +2.4 +1.3 92
С 3-3
{4}
5000 м слаб. морось 10 баллов +2.4 +1.3 92
С 2-3
{3}
5000 м слаб. морось 10/10 100 м +2.4 +1.4 93
СВ 2-3
{3}
4900 м в посл. час дождь 10/10 100 м +2.5 +1.5 93
СВ 2-3
{4}
4600 м морось с дождем 10 баллов +2.5 +1.7 94 +1.7 0.1 0.1
С 2-3
{3}
4900 м слаб. дождь 10/10 100 м +2.4 +1.8 96 0.1
СВ 2-3
{4}
4700 м слаб. дождь 10/10 100 м +2.4 +1.7 95 0.3
СВ 1-2
{4}
6000 м слаб. дождь 10 баллов +2.4 +1.7 95 0.4
С 2-2
{2}
13 км дождь 10/10 100 м +2.1 +1.3 94 1
С 1-1
{2}
11 км слаб. дождь со снегом 10/10 100 м +2.0 +1.4 96 0.4
СВ 1-2
{4}
8000 м слаб. дождь со снегом 10 баллов +1.9 +1.1 94 0.7
СЗ 1-1
{3}
7000 м слаб. дождь со снегом 10/9 200 м +1.7 +1.0 95 0.7
ЮЗ 1-1
{1}
9000 м слаб. дождь со снегом 10/10 100 м +1.6 +0.8 94 0.6
ЮЗ 1-2
{3}
8000 м слаб. дождь 10/10 200 м +1.8 +1.3 96 0.3
ЮЗ 1-2
{2}
9000 м слаб. дождь 10/10 600 м +1.8 +1.5 98 0.5
Ю 1-2
{2}
6000 м слаб. дождь 10/10 300 м +1.8 +1.4 97 0.5
Ю 2-3
{3}
6000 м слаб. дождь 10/9 100 м +1.9 +1.6 98 +2.5 0.2
Местоположение метеостанции Элль (Нидерланды): широта 51.20 долгота 5.77 высота над уровнем моря 30 м.
В архиве по умолчанию представлена погода в Элле за последнюю неделю. Архивные данные за месяц целиком и за предыдущие месяцы, начиная с января 2011 года, Вы можете получить, выбрав интересующий диапазон дат из раскрывающегося списка и нажав кнопку "Найти!".
*Определитесь, кто Вы:
Внимание! Время в таблицах - всемирное. Для получения местного времени необходимо прибавить поправку, которая равна 1 ч.
Смотрите также архив погоды в соседних городах и на ближайших метеорологических станциях:
Партнеры нашего сайта:      
Пояснения к столбцам:
  • Ветер - указаны скорость ветра в м/с - средняя за 10 мин, порывы в срок и между сроками (в фигурных скобках) и направление, откуда дует ветер: С - северный,
  • СВ - северо-восточный, В - восточный, ЮВ - юго-восточный, Ю - южный, ЮЗ - юго-западный, З - западный, СЗ - северо-западный.
  • Видимость - горизонтальная дальность видимости в метрах или километрах. При видимости от 1 до 10 км при отсутствии осадков обычно наблюдается дымка, при ухудшении видимости до 1 км и менее - туман. В сухую погоду видимость может ухудшаться дымом, пылью или мглою.
  • Явления - указаны атмосферные явления, наблюдавшиеся в срок или в последний час перед сроком; фигурными скобками обозначены явления, наблюдавшиеся между сроками (за 1-3 часа до срока); квадратными скобками обозначены град или гололедные отложения с указанием их диаметра в мм.
  • Облачность - указаны через наклонную черту общая и нижняя облачность в баллах и высота нижней границы облаков в метрах; квадратными скобками обозначены формы облаков: Ci - перистые, Cs - перисто-слоистые, Cc - перисто-кучевые, Ac - высококучевые, As - высокослоистые, Sc - слоисто-кучевые, Ns - слоисто-дождевые, Cu - кучевые, Cb - кучево-дождевые. Подробнее классификацию облаков см. в Атласе облаков (PDF).
  • T - Температура воздуха - температура, измеренная на высоте 2 м над землей.
  • Td - Температура точки росы - температура, при понижении до которой содержащийся в воздухе водяной пар достигнет насыщения.
  • f - Относительная влажность воздуха - влажноcть воздуха, измеренная на высоте 2 м над землей.
  • Te - Эффективная температура - температура, которую ощущает одетый по сезону человек в тени. Характеристика душности погоды. При расчете учитывается влияние влажности воздуха и скорости ветра на теплоощущения человека.
  • Tes - Эффективная температура на солнце - температура, которую ощущает человек, с поправкой на солнечный нагрев. Характеристика знойности погоды. Зависит от высоты солнца над горизонтом, облачности и скорости ветра. Ночью, в пасмурную погоду, а также при ветре 12 м/с и более поправка равна нулю.
  • P - Атмосферное давление - приведенное к уровню моря атмосферное давление.
  • Po - Атмосферное давление - измеренное на уровне метеостанции атмосферное давление.
  • Tmin - Минимальная температура - минимум температуры воздуха на высоте 2 м над землей.
  • Tmax - Максимальная температура - максимум температуры воздуха на высоте 2 м над землей.
  • R - Количество осадков - Количество выпавших осадков за период времени, мм. При наведении курсора мыши на число - период времени, за который выпало указанное количество осадков.
  • R24 - Количество осадков - Количество выпавших осадков за 24 часа, мм.
  • S - Снежный покров - Высота снежного покрова, см. При наведении курсора мыши на число - состояние снежного покрова и степень покрытия местности в баллах.